Location: ?????
(31.8092°N, 35.2590°E)
Time: 03:49:39
(UTC+00:00)

Cosmos 2360 Rocket - Pass Details

Date: 22 October 2021
Orbit: 832 x 846 km, 71.0° (Epoch: 07 December)

Event Time Altitude Azimuth Distance (km) Brightness Sun altitude
Rises 15:17:15 0° 160° (SSE) 3,366 5.2 -4.6°
Reaches altitude 10° 15:20:22 10° 143° (SE) 2,439 4.3 -5.3°
Maximum altitude 15:24:09 19° 100° (E) 1,901 3.5 -6.1°
Drops below altitude 10° 15:27:57 10° 57° (ENE) 2,455 4.1 -6.9°
Sets 15:31:05 0° 40° (NE) 3,396 4.9 -7.5°
